カタログに戻る

STARLINK-35018

運用中通信SSO
NORAD 65288·PAYLOAD·🇺🇸 United States

打ち上げ Aug 22, 2025 から Vandenberg Space Force Base

Loading…

次のパス (今後24時間)

TLE

最新Source: CelesTrak SupGP

元期: Sep 15, 2026, 03:36 UTC

1 65288C 25184R   26258.15048611  .00007619  00000+0  23648-3 0  2584
2 65288  97.2835 306.1719 0000995  82.3371 247.2719 15.33438259    15

AllMySatでSTARLINK-35018をリアルタイム追跡

Download on the App Store